Weather in Bobrovytsia

Ukraine / Chernihiv Region     50°44′28″N   31°23′02″E
temp.,
°C
wind,
m/s
gust,
m/s
humid.,
%
clouds,
%
prec.,
mm/h
press.,
hPa
HPBL,
m
18 april, sun
sun1800:00+6sw2492100 0.1 1018115
03:00+6wnw248297 0.1 1018113
06:00+5w3689100 0.0 1017223
09:00+5sw4893100 1.4 1016361
12:00+6w4590100 0.1 1016470
15:00+10n3470100 0.3 10171122
18:00+8ne567224 0.0 1017853
21:00+5ene36900 0.0 1019165
19 april, mon
mon1900:00+4sse11934 0.0 101910
03:00+3nne11925 0.0 101910
06:00+3n11933 0.0 101911
09:00+7nne23790 0.0 1019312
12:00+11ne336240 0.0 10181226
15:00+12nne445696 0.1 10171583
18:00+11nne457074 0.1 1017409
21:00+9ne4780100 0.2 1017273
20 april, tue
tue2000:00+7ne389280 0.1 1016215
03:00+6ne599437 0.3 1014324
06:00+5ne6109598 0.1 1013387
09:00+7ne688499 0.1 1013542
12:00+11nne686237 0.1 10101423
15:00+12n7861100 0.2 10071620
18:00+10n8107486 0.1 10061066
21:00+7nnw81385100 0.3 1006675
21 april, wed
wed2100:00+6nw61087100 0.1 1007579
03:00+6nw61089100 0.1 1008594
06:00+5wnw5988100 0.0 1009577
09:00+6w5784100 0.1 1011597
12:00+9w6761100 0.1 10121552
15:00+11w6752100 0.1 10131869
18:00+10sw466065 0.0 1014941
21:00+9s4767100 0.0 1015153
22 april, thu
thu2200:00+8s4972100 0.0 1015239
03:00+7s4987100 0.3 1015229
06:00+6ssw379086 0.1 1016144
09:00+11ssw477269 0.1 1016403
12:00+14ssw68605 0.4 10161287
15:00+16ssw67545 1.6 10151592
18:00+14sw58629 1.1 1015665
21:00+11s34755 1.3 101561